Location: Bubsheim
(48.1196°N, 8.8307°E)
Time: 21:25:17
(UTC+00:00)

Daily predictions for brighter satellites

Satellite Brightness Start Highest point End
(mag) Time Altitude Azimuth Time Altitude Azimuth Time Altitude Azimuth
Cosmos 2344 3.7 16:22:39 10° SSW 16:30:12 58° ESE 16:37:18 10° NE
SL-16 R/B 4.1 16:29:09 10° W 16:33:31 22° NW 16:37:54 10° N
Okean 3 4.3 16:33:11 10° SSE 16:36:41 28° E 16:40:14 10° NNE
Cosmos 1937 Rocket 4.5 16:33:23 10° N 16:37:36 25° NE 16:41:49 10° ESE
ASTEX 1 3.6 16:32:58 10° S 16:37:49 80° W 16:42:43 10° N
Meteor 1-31 Rocket 4.2 16:37:01 10° E 16:39:03 15° ENE 16:41:05 10° NNE
Okean 2 4.4 16:37:53 10° SE 16:41:06 24° E 16:44:20 10° NE
Cosmos 1354 Rocket 4.4 16:35:55 10° NNW 16:41:08 70° WSW 16:46:19 10° SSE
CZ-2D R/B 3.9 16:39:28 10° S 16:42:49 52° W 16:46:11 10° NNW
Cosmos 1943 Rocket 2.3 16:39:31 10° NNW 16:45:06 55° ENE 16:50:36 10° SE
ARIANE 5 R/B 3.9 16:40:37 10° S 16:45:37 46° W 16:50:38 10° NNW
NOSS 5 (C) 4.2 16:43:50 10° NW 16:47:05 89° SW 16:50:20 10° SE
CZ-2C R/B 4.4 16:48:33 10° ENE 16:48:41 10° ENE 16:49:18 10° NE
Cosmos 2237 Rocket 2.8 16:44:42 10° S 16:49:57 39° ESE 16:55:13 10° NE
RESURS DK-1 2.5 16:48:08 10° NNW 16:52:02 46° NE 16:55:55 10° SE
Tsikada Rocket 4.2 16:47:57 10° SSW 16:54:05 78° W 17:00:18 10° N
Cosmos 1862 Rocket 4.1 16:50:17 10° SSE 16:54:17 37° E 16:58:21 10° NNE
USA 81 4.4 16:50:57 10° SSW 16:56:11 71° W 17:01:28 10° N
BlueWalker 3 2.5 16:53:30 10° WNW 16:56:57 38° N 16:59:51 14° ENE
BREEZE-M DEB (TANK) 1.4 16:55:33 10° WSW 16:57:49 59° SSE 17:00:09 14° ENE
Cosmos 1455 2.4 16:55:22 10° NNW 16:58:33 58° W 17:01:41 10° S
Cosmos 2278 Rocket 2.2 16:53:33 10° NNW 16:59:16 85° ENE 17:04:55 10° SSE
SJ-7 4.1 16:57:26 10° SSE 17:01:13 80° ENE 17:05:02 10° N
Cosmos 2219 Rocket 3.4 16:56:07 10° WSW 17:01:16 38° NW 17:06:31 10° NNE
COSMO-SKYMED 1 3.3 16:57:23 10° NNE 17:01:20 33° E 17:05:15 10° SSE
ARGOS Delta rocket 3.7 16:57:08 10° SSE 17:01:49 89° WSW 17:06:19 10° NNW
ISS -3.2 17:00:30 10° SW 17:03:43 45° SSE 17:06:06 16° E
CZ-4C R/B 2.6 17:00:30 10° S 17:04:18 31° ESE 17:08:01 14° ENE
CSL-04 DEB 4.5 17:01:50 10° S 17:05:41 75° WSW 17:09:30 10° NNW
Nadezhda 4 Rocket 4.4 17:02:27 10° SSE 17:08:00 38° E 17:13:36 10° NNE
Meteor 1-21 4.3 17:03:00 10° SSW 17:08:37 85° WNW 17:14:18 10° N
Cosmos 1763 Rocket 3.6 17:06:41 10° SSW 17:11:54 81° WNW 17:17:05 10° NNE
Spot 4 Rocket 4.4 17:07:00 10° S 17:12:06 70° WSW 17:17:14 10° NNW
USA 306 3.1 17:10:18 10° NW 17:12:10 21° NNE 17:12:55 19° NE
YAOGAN 1 3.2 17:09:06 10° SE 17:12:53 31° ENE 17:16:39 10° N
ATLAS 5 CENTAUR R/B 2.7 17:12:15 10° SSE 17:14:04 14° ESE 17:14:21 14° ESE
Cosmos 1733 Rocket 3.0 17:10:21 10° N 17:14:46 80° E 17:19:11 10° SSE
Cosmos 540 Rocket 3.4 17:12:28 10° SSW 17:17:37 90° E 17:22:46 10° NNE
Landsat 7 3.8 17:14:21 10° SSE 17:18:56 57° ENE 17:23:33 10° N
SPOT 1/Viking Rocket 4.3 17:16:18 10° ESE 17:20:44 30° ENE 17:25:12 10° N
Cosmos 468 Rocket 3.9 17:16:20 10° SSW 17:21:31 77° ESE 17:26:40 10° NNE
USA 215 3.8 17:16:12 14° NE 17:21:42 49° NNW 17:27:56 10° W
Cosmos 2228 Rocket 3.1 17:20:38 10° S 17:25:10 83° E 17:29:45 10° N
Cosmos 2279 Rocket 4.2 17:20:41 10° NNW 17:26:52 73° W 17:33:01 10° S
Resurs 1-3 4.4 17:24:48 10° SE 17:28:30 29° ENE 17:32:14 10° N
Cosmos 1656 Rocket 4.2 17:24:38 10° NNW 17:29:38 35° NE 17:33:23 16° ESE
Cosmos 1898 Rocket 3.4 17:24:32 10° NNW 17:29:52 78° ENE 17:35:10 10° SSE
Cosmos 841 Rocket 3.8 17:26:00 10° S 17:31:00 47° ESE 17:35:00 16° NE
Aureole 1 Rocket 4.4 17:26:14 10° NNW 17:34:00 88° WSW 17:40:53 10° SSE
Cosmos 1703 3.6 17:33:11 10° SSE 17:36:21 32° E 17:36:27 32° E
Okean 1-7 2.9 17:34:37 10° S 17:38:51 63° E 17:43:06 10° NNE
SL-16 R/B 3.0 17:34:26 10° SSE 17:39:15 30° ESE 17:40:55 25° ENE
Cosmos 1980 3.7 17:33:57 10° SSW 17:39:36 86° WNW 17:44:57 12° NNE
Cosmos 1953 3.3 17:39:56 10° NNW 17:43:30 44° W 17:47:02 10° SSW
ADEOS 4.3 17:48:47 29° ENE 17:49:00 29° ENE 17:53:28 10° N
SKYMED 2 3.6 17:45:08 10° NNE 17:49:30 83° WNW 17:53:51 10° SSW
NOSS 0 Rocket 4.4 17:43:35 10° SW 17:49:40 61° NW 17:55:40 10° NNE
Cosmos 1818 3.5 17:47:19 10° NW 17:52:47 64° NE 17:56:19 22° SE
Cosmos 1092 Rocket 4.2 17:48:05 10° SSE 17:53:52 44° E 17:59:42 10° NNE
Resurs 01 Rocket 3.9 17:57:26 11° NNE 17:57:26 11° NNE 17:57:35 10° NNE
ATLAS 2AS CENTAUR R/B 2.6 17:47:39 10° NW 17:54:26 64° NE 17:59:04 21° ESE
ACS3 Solar Sail 1.9 17:49:21 10° SSE 17:55:46 88° ENE 18:02:12 10° NNW
Cosmos 2369 Rocket 2.7 17:50:35 10° NNW 17:55:47 37° NE 17:56:55 34° ENE
COSMOS 2428 4.1 17:52:00 10° WSW 17:57:10 34° NW 18:02:21 10° NNE
Cosmos 372 Rocket 4.4 17:54:49 10° NNW 17:59:50 62° WSW 18:04:50 10° S
BREEZE-M DEB (TANK) 3.0 17:59:03 10° W 18:06:40 73° N 18:07:22 55° ENE
Cosmos 1908 Rocket 3.4 18:03:28 10° N 18:07:50 89° W 18:12:09 10° S
Meteor 2-12 Rocket 4.3 18:05:08 10° S 18:11:10 73° E 18:17:16 10° NNE
CZ-4B DEB 4.5 18:12:01 43° ENE 18:12:09 43° ENE 18:17:19 10° N
Meteor 1-31 Rocket 3.5 18:08:44 10° S 18:12:11 48° W 18:15:41 10° NNW
EO 1 Delta rocket 4.2 18:08:46 10° N 18:13:27 62° WNW 18:18:02 10° SSW
Cosmos 1627 Rocket 4.4 18:10:32 10° S 18:16:51 67° E 18:23:12 10° NNE
Cosmos 2297 3.7 18:13:17 10° NNW 18:18:59 59° ENE 18:20:17 48° ESE
Cosmos 1937 Rocket 4.1 18:14:48 10° NNW 18:19:50 56° WSW 18:24:52 10° S
CZ-2C R/B 3.7 18:22:18 34° NNW 18:22:18 34° NNW 18:24:23 10° NNW
Cosmos 2026 Rocket 3.9 18:16:12 10° S 18:22:32 75° E 18:28:54 10° NNE
Cosmos 1932 4.3 18:18:04 10° SSW 18:24:11 68° ESE 18:25:49 48° ENE
BREEZE-M DEB (TANK) 3.1 18:15:22 10° WSW 18:28:00 87° SSE 18:28:56 61° E
Cosmos 1943 Rocket 4.3 18:23:48 10° NW 18:28:29 27° WSW 18:33:08 10° SSW
Cosmos 2237 Rocket 3.4 18:28:39 10° WSW 18:33:59 40° NW 18:37:58 17° N
BlueWalker 3 2.9 18:31:21 10° WNW 18:33:53 42° WNW 18:33:53 42° WNW
COSMO-SKYMED 1 4.4 18:33:40 10° N 18:37:25 29° WNW 18:41:09 10° SW
ISS -1.8 18:37:10 10° W 18:39:01 29° WNW 18:39:01 29° WNW
Cosmos 2344 4.4 18:37:58 10° W 18:44:51 41° NNW 18:48:48 24° NNE
YAOGAN 1 4.5 18:45:03 10° SSW 18:48:46 29° W 18:52:31 10° NW
CZ-4C R/B 2.7 18:47:51 10° WSW 18:52:18 46° NW 18:53:04 43° NNW
ATLAS 5 CENTAUR R/B 3.6 18:53:43 10° WSW 18:54:38 18° WSW 18:54:38 18° WSW
Meteor 1-24 Rocket 3.7 18:51:41 10° S 18:57:36 88° W 18:58:08 76° N
USA 215 3.9 19:03:32 41° NNE 19:04:00 41° N 19:10:03 10° WNW
Meteor 2-5 Rocket 3.9 19:02:30 10° SSW 19:07:38 69° SW 19:07:38 69° SW
SL-16 R/B 2.9 19:17:35 10° SW 19:22:50 51° WNW 19:22:50 51° WNW
Cosmos 1553 Rocket 4.3 19:18:32 10° NNW 19:23:51 59° WNW 19:23:51 59° WNW
Cosmos 2369 Rocket 3.4 19:34:37 10° NW 19:38:45 38° W 19:38:45 38° W
ACS3 Solar Sail 4.4 19:35:58 10° SW 19:40:08 18° W 19:44:20 10° NW
ATLAS 2AS CENTAUR R/B 4.0 19:39:02 10° NW 19:44:56 33° WSW 19:46:35 29° SW
